Location: Hains Lake
(37.8540°N, 99.8578°W)
Time: 10:05:52
(UTC+00:00)

Tiros 1 despin weight - Pass Details

Date: 19 April 2021
Orbit: 593 x 642 km, 48.2° (Epoch: 07 May)

Event Time Altitude Azimuth Distance (km) Brightness Sun altitude
Rises 16:40:52 0° 305° (NW) 2,868 ? 52.7°
Reaches altitude 10° 16:43:20 10° 314° (NW) 1,954 ? 53.1°
Maximum altitude 16:47:29 36° 22° (NNE) 951 ? 53.8°
Drops below altitude 10° 16:51:35 10° 90° (E) 1,927 ? 54.4°
Sets 16:54:00 0° 99° (E) 2,822 ? 54.7°
